Location: Brivio
(45.7333°N, 9.4500°E)
Time: 21:19:32
(UTC+00:00)

STARLINK-61 - Pass Details

Date: 18 October 2019
Orbit: 530 x 533 km, 53.0° (Epoch: 15 November)

Event Time Altitude Azimuth Distance (km) Brightness Sun altitude
Rises 16:56:32 0° 262° (W) 2,670 10.3 -5.0°
Reaches altitude 10° 16:58:51 10° 270° (W) 1,782 8.0 -5.4°
Maximum altitude 17:02:41 41° 341° (NNW) 786 4.5 -6.1°
Drops below altitude 10° 17:06:32 10° 53° (NE) 1,788 5.7 -6.8°
Enters shadow 17:07:22 - 56° (ENE) 2,103 6.0 -6.9°
